Home > Weather > Pécs > Past weeks

Flag for Hungary Past Weather in Pécs, Hungary — Yesterday and Last 2 Weeks

Now
85 °F

Passing clouds.


Feels Like: 86 °F
Forecast: 67 / 89 °F
Wind: 2 mph from Southwest

Location: Pecs / Pogany

Current Time: Jul 30, 2016 at 5:06:08 PM

Latest Report: Jul 30, 2016 at 4:00 PM


Visibility: 37 mi

Pressure: 29.96 "Hg

Humidity: 50%

Dew Point: 64 °F

Location of PécsLocation

Past Weather in Pécs — Graph

°F

Pécs Temperature Yesterday

Maximum temperature yesterday: 82 °F (at 6:00 PM)
Minimum temperature yesterday: 66 °F (at 6:00 AM)
Average temperature yesterday: 75 °F

High & Low Weather Summary for the Past Weeks

 TemperatureHumidityPressure
High88 °F (Jul 23, 4:00 PM)99% (Jul 25, 10:00 PM)30.14 "Hg (Jul 25, 10:00 PM)
Low56 °F (Jul 16, 9:00 AM)38% (Jul 21, 12:00 PM)29.85 "Hg (Jul 16, 10:00 AM)
Average72 °F73%30.01 "Hg
* Reported Jul 15 3:00 PM — Jul 30 3:00 PM, Pécs, Weather by CustomWeather, © 2016

Note: Actual official high and low records may vary slightly from our data, if they occured in-between our weather recording intervals... More about our weather records

Advertising

Pécs Weather History for the Previous 24 Hours

Scroll right to see more
 ConditionsComfort  
Time TempWeatherWind HumidityBarometerVisibility
3:00 PM
Sat, Jul 30
84 °FPassing clouds.2 mph48%29.97 "Hg37 mi
2:00 PM84 °FPassing clouds.3 mph56%29.99 "Hg37 mi
1:00 PM83 °FScattered clouds.2 mph55%29.99 "Hg37 mi
12:00 PM82 °FPassing clouds.2 mph57%30.00 "Hg37 mi
11:00 AM82 °FPassing clouds.2 mph56%30.01 "Hg37 mi
10:00 AM80 °FPassing clouds.1 mph59%30.00 "Hg37 mi
9:00 AM78 °FPassing clouds.No wind65%30.00 "Hg37 mi
8:00 AM75 °FPassing clouds.No wind71%30.00 "Hg37 mi
7:00 AM70 °FMild.2 mph81%30.01 "HgN/A
6:00 AM69 °FMild.3 mph79%30.00 "HgN/A
5:00 AM66 °FMild.2 mph91%30.00 "HgN/A
4:00 AM64 °FMild.No wind90%30.00 "HgN/A
3:00 AM69 °FMild.3 mph79%29.99 "HgN/A
2:00 AM70 °FMild.3 mph79%29.99 "HgN/A
1:00 AM69 °FMild.No wind77%29.99 "HgN/A
12:00 AM72 °FMild.1 mph69%29.98 "HgN/A
11:00 PM
Fri, Jul 29
71 °FMild.No wind79%29.98 "HgN/A
10:00 PM75 °FMild.2 mph68%29.98 "HgN/A
9:00 PM77 °FWarm.2 mph61%29.95 "HgN/A
8:00 PM80 °FWarm.1 mph56%29.94 "HgN/A
7:00 PM81 °FPassing clouds.1 mph56%29.93 "Hg37 mi
6:00 PM82 °FScattered clouds.2 mph50%29.93 "Hg37 mi
5:00 PM82 °FPartly sunny.2 mph51%29.93 "Hg37 mi
Weather by CustomWeather, © 2016

See weather overviewHow to use our weather pages